Wind_Speed
42 43 45 46 46 47 48 49 51 53 55 56 58 60 61 61 63 64 64 63 62 62 63 64 65 66 67 67 68 68 68 68 67 62 60 58 56 54 52 51 51 50 50
42 44 46 47 48 49 51 53 55 56 57 58 59 60 61 62 64 64 63 61 61 61 63 64 65 66 67 67 67 66 65 63 61 56 53 51 48 46 45 44 43 43 43
45 47 49 50 51 53 54 56 57 58 59 60 61 61 62 64 64 60 58 58 59 61 63 64 65 66 66 65 64 61 59 56 53 50 45 43 41 40 39 38 38 37 37
49 50 52 52 54 55 57 58 60 61 62 63 63 63 63 61 57 56 56 57 59 61 63 64 64 64 63 61 57 54 51 48 45 42 38 37 36 35 34 33 31 30 29
52 53 53 54 55 56 57 59 61 63 65 64 62 60 57 55 54 55 56 58 59 60 61 61 61 59 56 52 48 45 43 40 37 34 32 30 29 28 27 26 24 23 24
53 53 53 54 55 57 59 60 62 64 63 60 57 54 53 53 54 55 56 57 58 58 58 56 53 50 47 44 42 39 36 33 29 27 25 23 21 21 20 19 17 17 17
51 52 52 53 55 57 58 61 62 62 60 57 53 52 52 52 54 55 55 55 55 54 52 48 44 42 39 37 35 31 28 25 22 19 17 16 15 15 14 13 13 12 12
50 51 51 53 55 56 58 60 59 58 54 51 50 50 51 52 52 53 52 51 49 46 43 39 37 35 33 30 27 23 19 16 15 13 12 11 11 10 10 9 8 7 6
48 49 51 53 54 55 57 56 54 52 50 48 48 49 50 50 50 49 47 43 40 37 36 34 31 28 25 22 18 14 12 10 9 8 8 8 8 8 7 7 7 7 7
47 48 50 53 54 54 53 50 47 46 46 46 47 48 48 47 45 42 39 35 33 31 30 28 25 21 18 14 11 9 7 7 6 6 6 7 7 7 7 7 7 8 8
46 48 49 49 49 47 45 44 45 45 46 46 46 46 44 40 37 33 30 28 26 24 23 21 18 14 11 9 7 7 7 7 7 7 7 7 7 8 8 8 9 9 8
43 43 43 42 42 41 41 42 44 45 45 43 41 38 35 31 28 26 25 23 20 18 16 13 11 8 7 6 7 7 7 7 8 8 9 8 8 9 9 9 9 9 8
37 36 36 37 38 40 41 42 42 41 39 36 32 29 26 23 22 22 21 18 16 12 9 8 6 5 6 7 7 8 8 8 8 9 9 9 9 10 10 10 9 10 9
32 34 35 36 37 38 39 38 36 34 30 27 24 21 20 18 18 18 18 15 11 8 5 4 4 5 7 8 8 8 8 8 9 10 10 10 10 11 11 11 11 11 11
32 34 35 36 36 35 34 32 29 26 23 20 18 17 16 16 16 15 14 11 8 5 3 4 5 6 8 8 9 8 8 9 9 10 11 12 12 13 12 13 13 13 14
32 33 34 34 32 30 27 24 22 19 17 16 16 15 14 14 13 12 9 7 4 3 4 6 7 8 8 9 9 9 9 9 10 11 12 14 14 14 14 14 15 15 15
31 32 31 30 27 24 21 19 17 16 15 15 14 13 13 12 11 9 7 5 3 4 6 7 8 9 9 9 9 9 9 10 11 12 13 14 15 16 16 16 17 17 17
30 29 27 25 22 19 18 17 16 15 13 12 12 12 11 10 8 7 5 3 5 7 8 9 9 9 9 9 9 9 9 10 11 12 13 15 16 17 18 18 18 19 19
28 26 23 20 18 17 17 16 15 13 12 11 11 10 9 7 6 5 4 6 8 9 10 9 9 9 9 9 9 9 10 11 12 13 13 15 16 17 18 18 19 20 21
25 23 20 18 17 16 16 15 13 12 11 9 9 8 7 6 6 6 7 9 10 10 10 10 9 9 9 9 9 10 11 11 12 13 14 15 15 16 17 18 19 20 21
24 21 18 17 16 16 15 13 12 10 9 7 7 6 6 7 7 8 10 11 11 11 10 10 9 9 9 9 9 10 11 12 13 13 14 15 15 15 16 17 18 19 21
22 19 18 16 16 15 13 11 10 8 7 6 6 7 8 9 10 11 12 12 11 11 10 10 9 9 10 10 11 12 12 12 13 13 14 14 15 15 16 17 17 18 19
21 19 18 16 15 13 11 10 9 7 6 7 8 9 10 11 13 13 13 12 11 10 10 9 9 10 10 11 11 12 12 13 13 13 14 14 14 15 15 16 17 17 17
22 21 19 17 15 13 11 10 9 8 8 9 10 11 12 14 15 15 14 13 12 11 10 10 10 11 12 12 12 13 13 13 14 13 13 14 14 15 15 16 16 16 16
24 23 21 18 16 14 12 11 11 11 11 12 13 13 15 15 16 16 15 14 13 13 12 12 12 12 12 12 13 13 13 13 14 14 13 13 14 14 14 15 15 16 16
26 25 23 21 18 16 15 14 14 14 14 15 15 16 16 16 17 16 16 15 14 14 14 13 13 13 12 13 13 13 13 13 13 13 12 12 13 14 14 14 14 15 15
Wind_Direction
280 282 285 287 288 290 291 292 292 294 295 296 295 295 296 298 298 298 297 297 297 297 298 298 298 297 297 297 296 296 295 294 293 292 290 288 287 285 283 281 279 277 275
284 285 287 289 291 292 292 293 293 294 295 294 294 295 297 299 299 299 298 297 298 299 298 298 298 298 298 298 297 297 296 295 294 293 291 289 287 285 283 281 280 278 276
286 288 289 290 291 292 293 294 294 294 294 293 294 295 297 298 299 299 299 300 300 299 299 299 300 300 299 299 298 297 296 296 295 294 292 289 288 286 284 283 281 279 276
287 288 289 290 291 292 293 293 293 293 292 292 293 295 296 298 300 300 301 300 300 300 300 301 301 301 300 300 299 299 298 297 296 295 293 291 288 287 286 284 281 279 276
287 288 289 290 291 292 293 293 293 292 292 292 294 297 299 301 302 301 301 301 301 302 302 303 303 302 302 302 301 301 300 299 297 297 295 293 290 289 289 287 283 277 275
286 288 289 290 291 292 292 292 292 293 294 297 299 301 302 302 301 301 301 302 303 304 305 305 305 304 304 304 304 303 302 300 299 299 298 296 294 293 292 290 286 280 274
286 287 288 289 290 290 291 292 293 295 298 301 302 302 302 302 302 302 304 305 306 307 307 307 307 307 307 307 307 305 303 302 302 302 302 301 300 300 299 296 292 287 278
286 286 287 288 289 290 292 293 295 298 300 302 302 302 301 302 303 304 306 308 308 308 309 310 311 311 311 312 311 310 308 307 308 308 309 310 312 312 310 309 307 300 293
286 287 288 288 289 291 292 294 297 299 301 302 302 301 302 304 305 307 309 309 309 310 311 313 315 316 317 318 319 320 322 323 324 326 329 332 333 334 332 327 321 315 306
286 286 287 289 290 292 294 297 300 301 302 302 302 303 305 306 308 309 309 309 311 312 313 316 319 322 325 330 336 343 351 358 3 5 3 1 355 351 345 340 334 327 320
286 288 289 290 293 295 298 301 302 302 303 304 305 306 307 307 308 308 309 311 312 313 315 318 323 329 336 349 4 16 26 33 30 22 15 9 5 359 352 347 344 339 331
288 290 293 296 299 301 302 302 303 304 305 307 307 308 307 307 308 310 313 316 317 317 319 325 332 344 3 23 34 40 42 39 32 28 23 19 14 8 5 3 360 357 355
294 297 301 302 303 303 304 305 307 308 309 310 310 309 309 310 312 316 319 322 325 327 329 337 353 19 35 42 49 48 46 41 36 30 26 25 23 21 21 19 15 17 25
302 303 304 304 305 307 309 310 312 313 314 314 313 312 313 314 317 321 324 329 334 342 352 15 42 52 53 54 53 51 48 42 37 37 37 36 34 35 37 38 35 38 42
306 306 307 309 311 313 314 316 317 318 319 318 318 318 319 321 323 325 328 333 342 358 35 60 67 65 61 57 53 52 49 47 47 46 45 47 48 49 50 49 49 52 56
310 311 313 315 317 318 319 321 322 323 324 325 325 326 326 327 328 330 336 344 357 47 82 87 80 74 66 60 56 54 54 56 56 57 58 57 56 56 58 57 56 59 65
317 319 320 322 324 325 327 328 330 331 331 330 331 331 332 333 335 340 347 1 55 95 101 95 86 76 68 62 59 59 63 65 69 68 66 65 63 62 62 61 62 64 70
325 326 327 328 330 332 334 335 336 336 336 336 336 337 338 341 346 355 9 61 101 108 105 98 87 76 68 63 64 68 73 77 78 76 75 73 70 68 66 64 65 69 73
333 333 333 334 335 337 337 337 338 340 340 340 342 343 347 354 6 23 58 100 110 108 105 97 87 76 67 67 73 78 83 87 86 84 82 79 76 71 66 65 67 71 75
339 339 339 339 339 340 340 341 341 343 343 345 350 357 9 24 39 63 91 107 108 106 102 94 84 74 70 75 82 88 91 94 94 91 88 86 81 76 70 68 69 72 76
346 345 345 345 344 344 346 347 349 351 356 2 12 27 43 53 68 84 99 105 105 103 99 91 82 75 77 84 92 98 100 101 99 96 93 90 86 82 79 76 74 75 77
353 354 354 353 352 352 354 358 1 6 17 31 49 63 68 73 82 92 101 104 102 100 96 88 80 77 83 91 100 104 105 105 103 101 98 94 90 87 85 84 83 82 81
4 4 2 1 0 2 6 11 18 30 47 65 77 79 80 82 87 94 98 99 98 95 91 86 84 84 89 96 102 106 107 107 107 105 101 97 91 87 86 86 85 85 86
15 13 12 11 13 17 24 32 43 57 74 85 88 87 87 88 90 92 93 93 91 89 87 86 88 90 94 98 104 108 108 108 108 106 102 98 91 86 84 84 84 86 87
23 22 22 23 28 34 44 54 64 75 86 91 92 92 92 91 90 90 90 89 86 84 84 85 89 94 97 99 103 107 108 109 110 107 103 98 91 85 83 82 82 84 85
29 30 31 35 41 49 59 67 75 82 87 91 94 94 93 91 89 88 87 85 83 81 81 84 88 94 98 100 103 106 108 109 110 108 103 97 91 86 82 79 78 79 81
Height
5761 5758 5755 5752 5748 5744 5741 5737 5732 5727 5722 5717 5711 5706 5700 5694 5688 5682 5676 5669 5663 5656 5649 5642 5635 5627 5620 5612 5604 5597 5589 5582 5577 5575 5569 5564 5559 5555 5552 5550 5548 5548 5547
5752 5748 5745 5741 5737 5733 5729 5724 5720 5714 5709 5703 5697 5691 5686 5680 5674 5668 5661 5654 5648 5641 5634 5627 5619 5611 5604 5595 5587 5579 5571 5564 5558 5556 5552 5547 5543 5539 5537 5535 5533 5532 5531
5741 5738 5734 5730 5726 5721 5716 5711 5706 5701 5695 5689 5683 5677 5671 5665 5660 5653 5646 5640 5634 5627 5619 5611 5603 5595 5587 5578 5570 5562 5555 5549 5543 5539 5536 5532 5529 5526 5524 5522 5520 5519 5518
5729 5726 5722 5718 5713 5709 5703 5698 5692 5687 5681 5675 5668 5662 5657 5651 5645 5639 5632 5626 5620 5612 5604 5596 5588 5579 5571 5562 5555 5547 5541 5535 5530 5526 5523 5520 5517 5515 5513 5511 5510 5508 5507
5717 5713 5709 5705 5700 5695 5690 5684 5679 5673 5667 5661 5654 5648 5642 5638 5632 5625 5619 5613 5606 5598 5590 5581 5572 5564 5555 5548 5541 5535 5529 5524 5519 5516 5513 5510 5508 5506 5504 5502 5501 5500 5499
5704 5700 5696 5692 5687 5682 5677 5671 5665 5659 5653 5647 5641 5635 5630 5625 5619 5612 5606 5599 5591 5584 5576 5567 5559 5551 5543 5536 5530 5524 5519 5514 5511 5508 5505 5503 5502 5500 5498 5496 5495 5494 5494
5691 5687 5683 5679 5674 5669 5663 5658 5652 5646 5640 5634 5629 5623 5618 5612 5606 5600 5592 5585 5578 5570 5562 5555 5547 5540 5533 5527 5521 5516 5511 5508 5505 5503 5501 5499 5497 5496 5494 5493 5491 5490 5489
5679 5674 5670 5666 5661 5656 5651 5645 5639 5633 5628 5623 5617 5611 5606 5601 5594 5587 5580 5572 5565 5557 5551 5545 5539 5532 5525 5520 5515 5510 5507 5504 5502 5500 5498 5497 5495 5493 5492 5490 5489 5488 5487
5667 5663 5659 5654 5649 5644 5638 5633 5627 5622 5616 5611 5606 5600 5594 5588 5582 5575 5568 5561 5554 5548 5542 5537 5531 5526 5520 5515 5511 5507 5505 5503 5501 5499 5498 5496 5494 5493 5491 5489 5488 5487 5486
5655 5651 5647 5642 5637 5632 5627 5621 5616 5611 5605 5600 5594 5588 5582 5575 5569 5563 5558 5553 5547 5541 5536 5531 5526 5521 5517 5513 5510 5507 5505 5503 5501 5500 5498 5497 5495 5493 5491 5489 5488 5486 5484
5645 5640 5636 5631 5626 5621 5615 5610 5605 5600 5594 5589 5583 5576 5570 5564 5559 5554 5550 5546 5541 5536 5531 5527 5523 5519 5516 5513 5510 5508 5506 5504 5503 5501 5500 5498 5496 5494 5492 5490 5488 5485 5483
5635 5630 5625 5620 5615 5611 5606 5600 5595 5589 5583 5577 5571 5565 5560 5555 5551 5547 5543 5539 5535 5531 5528 5525 5522 5519 5517 5514 5512 5510 5508 5506 5505 5503 5502 5500 5497 5495 5493 5490 5488 5485 5483
5626 5621 5616 5612 5606 5601 5596 5590 5584 5578 5572 5567 5562 5557 5553 5549 5546 5542 5538 5535 5531 5528 5526 5524 5522 5520 5518 5516 5514 5512 5510 5509 5507 5506 5504 5501 5499 5497 5494 5492 5489 5487 5485
5618 5614 5609 5604 5598 5592 5586 5580 5574 5568 5563 5559 5555 5551 5548 5545 5541 5538 5535 5531 5529 5527 5525 5524 5523 5521 5520 5518 5516 5515 5513 5512 5510 5508 5506 5504 5502 5499 5497 5495 5492 5490 5487
5612 5607 5601 5595 5589 5583 5576 5571 5566 5561 5557 5553 5550 5547 5544 5541 5538 5535 5532 5530 5528 5526 5526 5525 5524 5523 5522 5520 5519 5517 5516 5514 5513 5511 5509 5507 5505 5503 5500 5498 5496 5494 5492
5605 5599 5592 5586 5581 5575 5570 5565 5559 5556 5552 5549 5546 5544 5541 5538 5536 5533 5531 5529 5528 5527 5527 5527 5526 5525 5524 5523 5521 5520 5519 5517 5516 5514 5513 5511 5509 5507 5505 5503 5501 5499 5497
5597 5591 5585 5579 5573 5568 5564 5560 5556 5553 5550 5547 5544 5541 5539 5536 5534 5532 5530 5529 5529 5528 5529 5528 5528 5528 5527 5525 5524 5523 5522 5521 5519 5518 5517 5516 5514 5512 5510 5508 5506 5504 5502
5591 5584 5579 5573 5568 5564 5560 5557 5553 5550 5547 5545 5542 5540 5538 5536 5534 5532 5531 5530 5530 5530 5531 5531 5531 5530 5529 5528 5527 5526 5525 5524 5524 5523 5522 5521 5519 5518 5516 5514 5512 5510 5509
5585 5579 5574 5569 5565 5561 5558 5554 5551 5548 5546 5543 5541 5539 5537 5536 5534 5533 5532 5532 5532 5533 5533 5533 5533 5533 5532 5531 5530 5529 5529 5529 5528 5528 5527 5526 5525 5524 5523 5521 5519 5517 5516
5581 5575 5571 5566 5563 5559 5556 5552 5550 5547 5545 5543 5541 5539 5538 5537 5535 5535 5534 5534 5535 5535 5536 5536 5536 5535 5535 5534 5533 5533 5533 5533 5533 5533 5532 5532 5531 5530 5529 5528 5526 5524 5523
5578 5573 5569 5565 5561 5557 5554 5551 5548 5546 5544 5543 5542 5540 5539 5538 5537 5537 5537 5538 5538 5539 5539 5539 5539 5538 5538 5537 5537 5537 5537 5538 5538 5538 5538 5538 5537 5537 5536 5534 5533 5532 5531
5577 5572 5568 5564 5560 5556 5553 5550 5548 5546 5545 5544 5543 5542 5542 5541 5540 5540 5541 5541 5542 5542 5542 5542 5542 5542 5541 5541 5541 5542 5542 5543 5543 5544 5544 5543 5543 5543 5542 5541 5540 5540 5539
5577 5572 5568 5563 5560 5556 5553 5551 5549 5547 5546 5546 5545 5545 5545 5544 5544 5544 5545 5545 5545 5546 5546 5546 5545 5545 5545 5545 5545 5546 5547 5548 5548 5549 5549 5549 5549 5549 5548 5548 5547 5546 5546
5579 5573 5569 5564 5560 5557 5554 5552 5550 5549 5549 5548 5548 5548 5548 5548 5548 5549 5549 5549 5550 5549 5549 5549 5549 5549 5549 5549 5550 5551 5552 5553 5553 5554 5555 5555 5555 5555 5554 5554 5553 5553 5553
5582 5576 5571 5566 5562 5559 5557 5555 5553 5553 5552 5552 5552 5553 5553 5553 5553 5554 5554 5554 5554 5554 5553 5553 5553 5553 5554 5554 5555 5556 5557 5557 5558 5559 5560 5560 5560 5560 5560 5560 5559 5559 5559
5586 5580 5575 5570 5566 5563 5560 5559 5558 5557 5557 5557 5557 5558 5558 5559 5559 5559 5559 5559 5559 5558 5558 5558 5558 5558 5558 5559 5560 5560 5561 5562 5563 5564 5565 5565 5565 5565 5565 5566 5565 5565 5565